Погода в Куилапе

Гватемала     14°16′22″N   90°17′51″W
темп.,
°C
ветер,
м/с
пор.,
м/с
влажн.,
%
обл.,
%
осадки,
мм/ч
давл.,
гПа
погр.,
м
9 августа, вт
вт900:00+17с3294100 1.3 101546
03:00+17с3395100 0.0 101373
06:00+17с2392100 0.0 101570
09:00+23св1270100 0.0 1015547
12:00+24юв127799 0.8 1014729
15:00+25вюв128396 3.8 1012767
18:00+21ююз119593 6.5 101324
21:00+19с219781 2.7 101524
10 августа, ср
ср1000:00+18ссв229486 4.6 101530
03:00+17ссв229529 0.3 101434
06:00+17с229582 0.3 101542
09:00+22ссв118184 0.0 1015221
12:00+26ююв116821 0.4 1014719
15:00+25вюв127765 2.1 1012722
18:00+21ююз1197100 4.2 101427
21:00+19св1198100 4.5 101624
11 августа, чт
чт1100:00+18св2297100 7.9 101763
03:00+18с2295100 1.2 101445
06:00+18ссв229360 1.3 101530
09:00+25вюв116765 0.0 1015496
12:00+26ю236790 0.1 10141098
15:00+25ю237989 1.6 1012687
18:00+21ююз1195100 3.9 101316
21:00+19ссв2297100 4.4 101630
12 августа, пт
пт1200:00+18с2297100 7.1 101648
03:00+18с229447 0.2 101432
06:00+17с229311 0.2 101533
09:00+24ююз11698 0.0 1015624
12:00+24ююв218185 1.1 1015760
15:00+23ю1191100 4.9 1013378
18:00+20ююз1199100 6.1 101452
21:00+19ссз1198100 1.0 101614
13 августа, сб
сб1300:00+18с1197100 2.0 101618
03:00+17с229599 0.0 101527
06:00+16с2295100 0.0 101628
09:00+23ююз117410 0.0 1016561
12:00+26ю226724 0.1 10141163
15:00+24ююз228590 1.1 1012436
18:00+21ю119895 3.3 101433
21:00+18с119687 1.1 101515